Location: Newark
(35.2672°N, 80.7344°W)
Time: 11:50:19
(UTC+00:00)

Vanguard 3 - Visible Passes

Search period start: 27 January 2020 00:00
Search period end: 06 February 2020 00:00
Orbit: 507 x 3264 km, 33.4° (Epoch: 26 January)

Date Brightness Start Highest point End Pass type
(mag) Time Alt. Az. Time Alt. Az. Time Alt. Az.
27 Jan 9.3 01:21:50 10° W 01:41:32 82° S 01:44:54 63° ESE visible
27 Jan 10.3 03:40:19 10° W 03:49:28 34° W 03:49:28 34° W visible
28 Jan 9.9 00:04:17 10° W 00:24:38 84° S 00:35:06 29° E visible
28 Jan 9.5 02:22:16 10° W 02:39:40 69° SW 02:39:40 69° SW visible
28 Jan 11.0 04:41:17 10° W 04:44:14 16° W 04:44:14 16° W visible
28 Jan 10.2 22:47:29 10° WSW 23:07:17 81° S 23:24:36 10° E visible
29 Jan 9.5 01:04:27 10° W 01:24:29 81° S 01:29:54 52° ESE visible
29 Jan 10.2 03:22:50 10° W 03:34:28 41° WSW 03:34:28 41° WSW visible
29 Jan 10.0 23:47:07 10° W 00:07:24 85° S 00:20:09 22° E visible
30 Jan 9.5 02:04:47 10° W 02:23:48 68° SSW 02:24:44 67° S visible
30 Jan 10.9 04:24:01 10° W 04:29:18 20° W 04:29:18 20° W visible
31 Jan 9.7 00:47:08 10° W 01:07:21 79° SSW 01:15:01 41° ESE visible
31 Jan 10.0 03:05:21 10° WNW 03:19:36 45° WSW 03:19:36 45° WSW visible
31 Jan 10.1 23:30:03 10° W 23:50:07 84° S 00:05:22 16° E visible
01 Feb 9.6 01:47:21 10° W 02:06:40 65° SSW 02:09:57 56° SSE visible
01 Feb 10.8 04:06:48 10° W 04:14:32 23° WSW 04:14:32 23° WSW visible
02 Feb 9.9 00:29:54 10° W 00:50:06 77° SSW 01:00:21 31° ESE visible
02 Feb 10.0 02:47:56 10° W 03:04:56 45° SW 03:04:56 45° SW visible
02 Feb 10.2 23:13:06 10° W 23:32:47 83° S 23:50:29 10° ESE visible
03 Feb 9.8 01:30:00 10° WNW 01:49:25 61° SSW 01:55:24 44° SSE visible
03 Feb 10.7 03:49:40 10° W 04:00:00 25° WSW 04:00:00 25° WSW visible
04 Feb 10.1 00:12:47 10° W 00:32:45 74° SSW 00:45:56 21° ESE visible
04 Feb 10.1 02:30:36 10° W 02:47:49 42° SW 02:50:32 40° SSW visible
04 Feb 10.3 22:56:16 10° W 23:15:24 82° S 23:33:50 10° ESE visible
05 Feb 10.2 01:12:45 10° WNW 01:32:03 58° SSW 01:41:10 31° SSE visible
05 Feb 10.7 03:32:41 10° W 03:45:21 24° SW 03:45:46 24° SW visible
